Latest Coastal Weather Observations for Lake Macquarie - Cooranbong

IDN60701

Issued at 5:11 pm EST Thursday 29 June 2017 (issued every 10 minutes, with the page automatically refreshed every 10 minutes)

About coastal observations | Map of coastal stations | Coastal observations for NSW | Marine services | Other Formats
Station Details ID: 061412 Name: LAKE MACQUARIE AWS Lat: -33.09 Lon: 151.46 Height: 6.0 m
Data from the previous 72 hours. | See also: Recent months at Lake Macquarie - Cooranbong
Date/Time
EST
Temp
°C
Wind Pressure Rain since
9am
mm
Weather Cloud Vis
km
Sea
Height
m
Swell
Dir  Spd
kts
Gust
kts
hPa Trend Height
m
Period
s
Dir
29/05:00pm 11.3 CALM 0 0 1019.3 - 0.2 - - - - - - -
29/04:30pm 13.0 CALM 0 0 1018.9 - 0.2 - - - - - - -
29/04:00pm 14.1 E 1 3 1018.7 - 0.2 - - - - - - -
29/03:30pm 14.2 CALM 0 0 1018.9 - 0.2 - - - - - - -
29/03:00pm 13.8 CALM 0 0 1018.7 - 0.2 - - - - - - -
29/02:30pm 13.7 CALM 0 2 1018.6 - 0.2 - - - - - - -
29/02:00pm 13.6 CALM 0 2 1018.7 - 0.2 - - - - - - -
29/01:30pm 13.4 CALM 0 1 1018.4 - 0.2 - - - - - - -
29/01:00pm 13.5 CALM 0 2 1019.1 - 0.2 - - - - - - -
29/12:30pm 13.2 CALM 0 1 1019.3 - 0.2 - - - - - - -
29/12:00pm 12.8 N 2 3 1020.2 - 0.2 - - - - - - -
29/11:30am 12.5 N 2 3 1020.7 - 0.2 - - - - - - -
29/11:00am 12.5 NNW 1 3 1021.1 - 0.2 - - - - - - -
29/10:30am 11.9 CALM 0 0 1021.4 - 0.2 - - - - - - -
29/10:00am 11.1 NW 1 2 1022.0 - 0.2 - - - - - - -
29/09:30am 11.1 NW 1 2 1022.4 - 0.0 - - - - - - -
29/09:00am 10.8 NW 2 5 1022.3 - 4.8 - - - - - - -
29/08:30am 10.8 CALM 0 0 1021.6 - 4.8 - - - - - - -
29/08:00am 10.4 CALM 0 0 1021.8 - 4.8 - - - - - - -
29/07:30am 10.3 NNW 1 2 1021.9 - 4.6 - - - - - - -
29/07:00am 10.1 W 1 4 1020.7 - 4.4 - - - - - - -
29/06:30am 10.2 SW 2 4 1020.4 - 4.4 - - - - - - -
29/06:00am 9.9 CALM 0 0 1019.5 - 4.4 Recent precip. - - - - - -
29/05:30am 10.0 CALM 0 1 1020.8 - 4.2 - - - - - - -
29/05:00am 9.8 CALM 0 0 1020.5 - 4.2 - - - - - - -
29/04:30am 9.7 CALM 0 0 1020.9 - 4.2 - - - - - - -
29/04:00am 9.9 CALM 0 0 1021.0 - 4.2 - - - - - - -
29/03:30am 9.9 CALM 0 0 1020.6 - 4.2 - - - - - - -
29/03:00am 9.9 CALM 0 0 1021.0 - 4.2 - - - - - - -
29/02:30am 10.3 CALM 0 0 1021.4 - 4.2 - - - - - - -
29/02:00am 10.6 CALM 0 0 1021.4 - 4.2 - - - - - - -
29/01:30am 11.0 SW 1 2 1021.5 - 4.2 - - - - - - -
29/01:00am 10.7 CALM 0 0 1020.9 - 4.2 - - - - - - -
29/12:30am 10.9 SSE 2 2 1021.8 - 4.2 - - - - - - -
29/12:00am 10.9 CALM 0 0 1021.6 - 4.2 Recent precip. - - - - - -
 
Date/Time
EST
Temp
°C
Wind Pressure Rain since
9am
mm
Weather Cloud Vis
km
Sea
Height
m
Swell
Dir  Spd
kts
Gust
kts
hPa Trend Height
m
Period
s
Dir
28/11:30pm 10.8 CALM 0 0 1021.8 - 3.8 - - - - - - -
28/11:00pm 11.1 CALM 0 0 1021.8 - 3.8 - - - - - - -
28/10:30pm 11.0 CALM 0 0 1021.8 - 3.8 - - - - - - -
28/10:00pm 11.1 CALM 0 0 1022.1 - 3.8 - - - - - - -
28/09:30pm 11.3 CALM 0 0 1021.9 - 3.8 - - - - - - -
28/09:00pm 10.8 CALM 0 0 1022.1 - 3.8 - - - - - - -
28/08:30pm 11.2 CALM 0 0 1022.1 - 3.8 - - - - - - -
28/08:00pm 11.0 CALM 0 0 1021.8 - 3.8 - - - - - - -
28/07:30pm 11.2 CALM 0 0 1021.8 - 3.8 - - - - - - -
28/07:00pm 11.6 CALM 0 0 1021.9 - 3.8 - - - - - - -
28/06:30pm 11.8 CALM 0 0 1021.7 - 3.8 - - - - - - -
28/06:00pm 12.3 CALM 0 0 1021.5 - 3.8 - - - - - - -
28/05:30pm 12.4 CALM 0 0 1021.5 - 3.8 - - - - - - -
28/05:00pm 12.8 NNW 1 3 1021.4 - 3.8 - - - - - - -
28/04:30pm 13.0 CALM 0 0 1021.6 - 3.8 - - - - - - -
28/04:00pm 13.1 CALM 0 0 1021.8 - 3.6 - - - - - - -
28/03:30pm 13.2 CALM 0 0 1021.9 - 3.4 - - - - - - -
28/03:00pm 13.4 CALM 0 0 1021.9 - 3.0 Rain - - - - - -
28/02:30pm 13.4 CALM 0 0 1021.8 - 2.4 - - - - - - -
28/02:00pm 13.4 CALM 0 0 1021.8 - 2.2 - - - - - - -
28/01:30pm 13.4 SSW 1 2 1021.8 - 1.8 - - - - - - -
28/01:00pm 13.5 NNE 2 3 1021.8 - 0.8 - - - - - - -
28/12:30pm 14.0 NNE 2 3 1021.7 - 0.4 - - - - - - -
28/12:00pm 14.7 NNE 3 4 1021.6 - 0.0 - - - - - - -
28/11:30am 15.6 N 3 5 1022.0 - 0.0 - - - - - - -
28/11:00am 15.7 N 1 2 1022.3 - 0.0 - - - - - - -
28/10:30am 15.2 E 1 1 1022.9 - 0.0 - - - - - - -
28/10:00am 13.1 ENE 1 2 1022.9 - 0.0 - - - - - - -
28/09:30am 12.1 CALM 0 0 1023.0 - 0.0 - - - - - - -
28/09:00am 11.2 CALM 0 0 1023.1 - 0.0 - - - - - - -
28/08:30am 10.5 CALM 0 0 1023.0 - 0.0 - - - - - - -
28/08:00am 9.7 CALM 0 0 1023.3 - 0.0 - - - - - - -
28/07:30am 9.1 CALM 0 0 1023.3 - 0.0 - - - - - - -
28/07:00am 8.9 CALM 0 0 1023.3 - 0.0 - - - - - - -
28/06:30am 9.2 CALM 0 0 1023.1 - 0.0 - - - - - - -
28/06:00am 9.4 CALM 0 0 1022.9 - 0.0 - - - - - - -
28/05:30am 9.5 CALM 0 0 1022.7 - 0.0 - - - - - - -
28/05:00am 9.6 CALM 0 0 1023.1 - 0.0 - - - - - - -
28/04:30am 9.5 CALM 0 0 1022.7 - 0.0 - - - - - - -
28/04:00am 9.5 CALM 0 0 1022.9 - 0.0 - - - - - - -
28/03:30am 9.4 CALM 0 0 1023.1 - 0.0 - - - - - - -
28/03:00am 9.3 CALM 0 0 1023.1 - 0.0 - - - - - - -
28/02:30am 9.2 CALM 0 0 1023.6 - 0.0 - - - - - - -
28/02:00am 9.0 CALM 0 0 1023.9 - 0.0 - - - - - - -
28/01:30am 8.9 CALM 0 0 1023.7 - 0.0 - - - - - - -
28/01:00am 8.7 CALM 0 0 1023.7 - 0.0 - - - - - - -
28/12:30am 8.5 CALM 0 0 1024.0 - 0.0 - - - - - - -
28/12:00am 8.3 CALM 0 0 1024.4 - 0.0 - - - - - - -
 
Date/Time
EST
Temp
°C
Wind Pressure Rain since
9am
mm
Weather Cloud Vis
km
Sea
Height
m
Swell
Dir  Spd
kts
Gust
kts
hPa Trend Height
m
Period
s
Dir
27/11:30pm 7.8 CALM 0 0 1024.8 - 0.0 - - - - - - -
27/11:00pm 8.0 CALM 0 0 1024.8 - 0.0 - - - - - - -
27/10:30pm 8.3 CALM 0 0 1024.7 - 0.0 - - - - - - -
27/10:00pm 8.9 CALM 0 0 1024.5 - 0.0 - - - - - - -
27/09:30pm 9.5 CALM 0 0 1024.6 - 0.0 - - - - - - -
27/09:00pm 9.8 CALM 0 0 1024.7 - 0.0 - - - - - - -
27/08:30pm 10.3 CALM 0 0 1024.9 - 0.0 - - - - - - -
27/08:00pm 10.4 CALM 0 0 1024.8 - 0.0 - - - - - - -
27/07:30pm 10.9 CALM 0 0 1024.8 - 0.0 - - - - - - -
27/07:00pm 10.6 CALM 0 0 1024.6 - 0.0 - - - - - - -
27/06:30pm 11.1 ENE 1 3 1024.6 - 0.0 - - - - - - -
27/06:00pm 11.4 CALM 0 0 1024.1 - 0.0 - - - - - - -
27/05:30pm 11.7 CALM 0 0 1024.1 - 0.0 - - - - - - -
27/05:00pm 13.1 CALM 0 0 1023.9 - 0.0 - - - - - - -
27/04:30pm 14.1 CALM 0 0 1024.1 - 0.0 - - - - - - -
27/04:00pm 15.1 CALM 0 0 1023.9 - 0.0 - - - - - - -
27/03:30pm 16.0 ESE 2 4 1024.0 - 0.0 - - - - - - -
27/03:00pm 16.7 ESE 2 5 1024.1 - 0.0 - - - - - - -
27/02:30pm 16.7 ESE 2 5 1024.4 - 0.0 - - - - - - -
27/02:00pm 16.8 SSE 2 3 1024.8 - 0.0 - - - - - - -
27/01:30pm 17.8 NE 2 4 1024.7 - 0.0 - - - - - - -
27/01:00pm 17.9 CALM 0 0 1024.9 - 0.0 - - - - - - -
27/12:30pm 17.9 CALM 0 1 1025.1 - 0.0 - - - - - - -
27/12:00pm 16.9 SSE 1 3 1025.4 - 0.0 - - - - - - -
27/11:30am 16.6 SW 2 3 1026.2 - 0.0 - - - - - - -
27/11:00am 15.6 SSW 2 3 1026.5 - 0.0 - - - - - - -
27/10:30am 13.5 CALM 0 0 1026.9 - 0.0 - - - - - - -
27/10:00am 12.2 CALM 0 0 1026.8 - 0.0 - - - - - - -
27/09:30am 11.3 CALM 0 0 1027.1 - 0.0 - - - - - - -
27/09:00am 8.0 CALM 0 0 1026.8 - 0.2 - - - - - - -
27/08:30am 5.4 CALM 0 0 1026.7 - 0.2 - - - - - - -
27/08:00am 3.6 CALM 0 0 1026.5 - 0.2 - - - - - - -
27/07:30am 1.9 CALM 0 0 1026.4 - 0.2 - - - - - - -
27/07:00am 1.8 CALM 0 0 1026.4 - 0.2 - - - - - - -
27/06:30am 1.6 CALM 0 0 1026.1 - 0.2 - - - - - - -
27/06:00am 2.0 CALM 0 0 1025.8 - 0.2 - - - - - - -
27/05:30am 2.1 CALM 0 0 1025.8 - 0.2 - - - - - - -
27/05:00am 2.2 CALM 0 0 1025.5 - 0.2 - - - - - - -
27/04:30am 2.4 CALM 0 0 1025.5 - 0.2 - - - - - - -
27/04:00am 2.5 CALM 0 0 1025.6 - 0.2 - - - - - - -
27/03:30am 2.5 CALM 0 0 1025.5 - 0.2 - - - - - - -
27/03:00am 2.9 CALM 0 0 1025.5 - 0.2 - - - - - - -
27/02:30am 2.8 CALM 0 0 1025.3 - 0.2 - - - - - - -
27/02:00am 3.0 CALM 0 0 1025.3 - 0.2 - - - - - - -
27/01:30am 3.3 CALM 0 0 1025.1 - 0.0 - - - - - - -
27/01:00am 3.5 CALM 0 0 1025.2 - 0.0 - - - - - - -
27/12:30am 3.8 CALM 0 0 1025.1 - 0.0 - - - - - - -
27/12:00am 4.0 CALM 0 0 1025.1 - 0.0 - - - - - - -
 
Date/Time
EST
Temp
°C
Wind Pressure Rain since
9am
mm
Weather Cloud Vis
km
Sea
Height
m
Swell
Dir  Spd
kts
Gust
kts
hPa Trend Height
m
Period
s
Dir
26/11:30pm 4.2 CALM 0 0 1025.4 - 0.0 - - - - - - -
26/11:00pm 4.5 CALM 0 0 1025.7 - 0.0 - - - - - - -
26/10:30pm 4.8 CALM 0 0 1025.5 - 0.0 - - - - - - -
26/10:00pm 5.2 CALM 0 0 1025.4 - 0.0 - - - - - - -
26/09:30pm 5.6 CALM 0 0 1025.3 - 0.0 - - - - - - -
26/09:00pm 6.0 CALM 0 0 1024.9 - 0.0 - - - - - - -
26/08:30pm 6.5 CALM 0 0 1024.8 - 0.0 - - - - - - -
26/08:00pm 6.9 CALM 0 0 1024.7 - 0.0 - - - - - - -
26/07:30pm 7.4 CALM 0 0 1024.5 - 0.0 - - - - - - -
26/07:00pm 7.6 CALM 0 0 1024.2 - 0.0 - - - - - - -
26/06:30pm 8.1 N 2 2 1023.7 - 0.0 - - - - - - -
26/06:00pm 9.2 CALM 0 0 1023.3 - 0.0 - - - - - - -
26/05:30pm 10.2 CALM 0 0 1022.9 - 0.0 - - - - - - -

Other Formats:

Comma delimited format used in spreadsheet applications
http://www.bom.gov.au/fwo/IDN60701/IDN60701.95767.axf

JavaScript Object Notation format (JSON) in row-major order
http://www.bom.gov.au/fwo/IDN60701/IDN60701.95767.json